Flag for U.S.A. Weather past 2 weeks in San Jose, California, U.S.A.

Now
54 °F

Clear.


Feels Like: 54 °F
Forecast: 51 / 69 °F
Wind: No wind

Location: San Jose International Airport


UV Index: 5 (Moderate)

Visibility: 10 mi


Pressure: 29.88 "Hg

Humidity: 80%

Dew point: 48 °F

Location of San JoseLocation

Historic Weather in San Jose

°F

San Jose temperature yesterday

Maximum temperature yesterday: 72 °F (at 1:53 PM)
Minimum temperature yesterday: 53 °F (at 6:53 AM)
Average temperature yesterday: 61 °F

Past Weeks' High & Low Weather Summary

 TemperatureHumidityPressure
High86 °F (Apr 8, 2:53 PM)96% (Apr 4, 8:53 AM)30.23 "Hg (Apr 4, 8:53 AM)
Low43 °F (Apr 3, 4:53 AM)23% (Apr 10, 2:53 PM)29.80 "Hg (Apr 17, 5:53 AM)
Average60 °F67%30.01 "Hg
* Reported Apr 3 2:53 AM — Apr 18 2:53 AM, San Jose, Weather by CustomWeather, © 2014

Note: Actual official high and low records may vary slightly from our data, if they occured in-between our weather recording intervals... More about our weather records

Advertising

Historic Weather Conditions — Data for Previous 24 hours

 ConditionsComfort  
Time TempWeatherWind HumidityBarometerVisibility
2:53 AM
Apr 18
54 °FClear.6 mph77%29.88 "Hg10 mi
1:53 AM55 °FClear.8 mph74%29.88 "Hg10 mi
12:53 AM57 °FClear.12 mph67%29.89 "Hg10 mi
11:53 PM
Apr 17
58 °FClear.6 mph70%29.88 "Hg10 mi
10:53 PM58 °FClear.3 mph67%29.88 "Hg10 mi
9:53 PM60 °FClear.6 mph60%29.88 "Hg10 mi
8:53 PM60 °FClear.8 mph65%29.87 "Hg10 mi
7:53 PM62 °FScattered clouds.7 mph60%29.85 "Hg10 mi
6:53 PM64 °FScattered clouds.8 mph58%29.85 "Hg10 mi
5:53 PM65 °FScattered clouds.13 mph61%29.85 "Hg10 mi
4:53 PM66 °FScattered clouds.17 mph59%29.84 "Hg10 mi
3:53 PM68 °FScattered clouds.17 mph57%29.84 "Hg10 mi
2:53 PM70 °FScattered clouds.16 mph53%29.85 "Hg10 mi
1:53 PM72 °FScattered clouds.7 mph49%29.84 "Hg10 mi
12:53 PM70 °FBroken clouds.5 mph51%29.85 "Hg10 mi
11:53 AM66 °FBroken clouds.No wind59%29.87 "Hg10 mi
10:53 AM64 °FBroken clouds.7 mph65%29.87 "Hg10 mi
9:53 AM65 °FBroken clouds.8 mph61%29.86 "Hg10 mi
8:53 AM59 °FBroken clouds.No wind69%29.85 "Hg10 mi
7:53 AM57 °FBroken clouds.No wind74%29.84 "Hg10 mi
6:53 AM53 °FPartly cloudy.No wind83%29.82 "Hg10 mi
5:53 AM54 °FClear.No wind83%29.80 "Hg10 mi
4:53 AM54 °FClear.5 mph83%29.81 "Hg10 mi
Weather by CustomWeather, © 2014

See weather overview